Regional Weather Roundup
Issued by NWS

Home | Current Version | Previous Version | Text Only | Print | Product List | Glossary On
Versions: 1 2 3 4 5 6 7 8 9 10 11 12 13 14 15 16 17 18 19 20 21 22 23 24 25 26 27 28 29 30 31 32 33 34 35 36 37 38 39 40 41 42 43 44 45 46 47 48 49 50
000
ASUS45 KABQ 110901
RWRNM
NEW MEXICO REGIONAL WEATHER ROUNDUP
NATIONAL WEATHER SERVICE ALBUQUERQUE NM
200 AM MST THU FEB 11 2016

NOTE: "FAIR" MEANS FEW OR NO CLOUDS BELOW 12,000 FEET AGL WITH NO
       SIGNIFICANT WEATHER OR OBSTRUCTIONS TO VISION.

      THIS PRODUCT IS RELEASED AS TWO VERSIONS.  ONE VERSION NEAR
      THE TOP OF THE HOUR CONTAINING PRELIMINARY DATA FROM ALBUQUERQUE
      AND OTHER STATIONS.  A FINAL VERSION WITH ADDITIONAL DATA IS
      ISSUED ABOUT 10 MINUTES AFTER THE HOUR.

NMZ501-503-504-510>518-111000-
NORTHWEST PLATEAU/NORTHCENTRAL MOUNTAINS

CITY           SKY/WX    TMP DP  RH WIND       PRES   REMARKS
FARMINGTON     CLOUDY    26  22  84 E7        30.35S WCI  18
SANTA FE       CLOUDY    35  18  49 N13       30.30S WCI  26
TAOS           CLOUDY    27  18  69 N5        30.35S WCI  21

$$
NMZ402-403-502-505>509-111000-
WESTCENTRAL MOUNTAINS/SOUTHWEST MOUNTAINS

CITY           SKY/WX    TMP DP  RH WIND       PRES   REMARKS
GALLUP         CLEAR     19  16  88 NE5       30.37F WCI  12
SILVER CITY      N/A     39  18  41 NW14      30.30S WCI  31

$$
NMZ407-409-411-412-111000-
SOUTHERN DESERTS

CITY           SKY/WX    TMP DP  RH WIND       PRES   REMARKS
DEMING         PTCLDY    34  14  43 SW5       30.25S WCI  30
ALAMOGORDO     CLEAR     45  14  29 NW3       30.24S
T OR C         CLEAR     41  15  35 CALM      30.27R

$$
NMZ519>523-111000-
CENTRAL VALLEYS/CENTRAL HIGHLANDS

CITY           SKY/WX    TMP DP  RH WIND       PRES   REMARKS
ALBUQUERQUE    CLOUDY    40  21  46 CALM      30.31S
DOUBLE EAGLE   CLOUDY    32  14  48 CALM      30.32F
MORIARTY ARPT  FAIR      26  16  66 NE3       30.31S
CLINES CORNERS CLOUDY    34  17  50 NW14      30.27S WCI  25
BELEN          FAIR      32  17  53 N7        30.31S WCI  26
SOCORRO        NOT AVBL

$$
NMZ524>526-539-540-111000-
SOUTHCENTRAL MOUNTAINS

CITY           SKY/WX    TMP DP  RH WIND       PRES   REMARKS
RUIDOSO          N/A     45  14  29 W9        30.30S

$$
NMZ527>531-111000-
NORTHEAST HIGHLANDS/NORTHEAST PLAINS

CITY           SKY/WX    TMP DP  RH WIND       PRES   REMARKS
LAS VEGAS      CLOUDY    37  10  32 N10       30.26S WCI  30
RATON          CLOUDY    42   8  24 N13       30.22F
CLAYTON        CLOUDY    42  15  33 NW8       30.20R

$$
NMZ532>537-111000-
EASTCENTRAL PLAINS

CITY           SKY/WX    TMP DP  RH WIND       PRES   REMARKS
TUCUMCARI      CLOUDY    34  14  43 N10       30.15R WCI  26
CANNON AFB     NOT AVBL
CLOVIS AIRPORT CLOUDY    34  16  47 W8        30.11F WCI  27

$$
NMZ028-029-538-111000-
SOUTHEAST PLAINS

CITY           SKY/WX    TMP DP  RH WIND       PRES   REMARKS
ROSWELL        CLOUDY    36  21  54 CALM      30.15S
ARTESIA        CLOUDY    41  19  42 NE5       30.15F
CARLSBAD       CLOUDY    39  19  44 N3        30.13F
HOBBS          CLOUDY    39  18  41 W6        30.14S WCI  35


$$



USA.gov is the U.S. government's official web portal to all federal, state and local government web resources and services.